Location: Zagreb
(45.8000°N, 16.0000°E)
Time: 23:35:27
(UTC+02:00)

Envisat - Pass Details

Date: 22 April 2024
Orbit: 762 x 764 km, 98.3° (Epoch: 27 May)

Event Time Altitude Azimuth Distance (km) Brightness Sun altitude
Rises 03:02:36 0° 29° (NNE) 3,238 7.6 -25.1°
Reaches altitude 10° 03:05:45 10° 50° (NE) 2,306 6.5 -24.8°
Maximum altitude 03:08:59 17° 90° (E) 1,867 5.4 -24.5°
Drops below altitude 10° 03:12:13 10° 130° (SE) 2,294 5.4 -24.1°
Enters shadow 03:13:26 - 139° (SE) 2,621 5.6 -24.0°
